Weather WX

World > North America > United States > New York

Kings County, New York Regional Weather

Lat: 40.65N, Lon: 73.93W
Wx Zone: NYZ075
Warning FLW WEATHER ALERT - (More Info. Click Here) Warning
Feedback

Kings County, NY Regional Weather

Expires:201906161900;;171375
ASUS41 KALY 161810
RWRALY

NEW YORK STATE HOURLY WEATHER ROUNDUP
NATIONAL WEATHER SERVICE ALBANY NY
200 PM EDT SUN JUN 16 2019

NOTE: "FAIR" INDICATES FEW OR NO CLOUDS BELOW 12,000 FEET WITH NO
SIGNIFICANT WEATHER AND/OR NO OBSTRUCTIONS TO VISIBILITY.


NYZ032-033-038>043-046>054-057>066-NYZ062>081-082-084-161900-
EAST

  
CITY           SKY/WX    TMP DP  RH WIND       PRES   REMARKS
ALBANY         LGT RAIN  66  63  90 S3        29.84S FOG              
GLENS FALLS    LGT RAIN  65  64  97 S5        29.84R                  
POUGHKEEPSIE   CLOUDY    69  64  84 SE3       29.83F                  
NEWBURGH       PTSUNNY   70  66  88 CALM      29.85F                  
MONTGOMERY     CLOUDY    70  67  90 CALM      29.82F                  
WHITE PLAINS   CLOUDY    72  64  76 SE3       29.84F                  
ISLIP          CLOUDY    72  65  78 S14       29.85F                  
NEW YORK CITY  CLOUDY    76  63  64 S10       29.83F                  
CENTRAL PARK   CLOUDY    74  64  71 VRB3      29.87S                  
$$


SKY/WX - Weather  TMP - Temperature  DP - Dew Point  RH - Relative Humidity
WIND - Wind Direction/Speed PRES - Barometric Pressure VSB - Visibility
WCI - Wind Chill Index E13G22 Wind - East Wind 13 mph/Gusts of 22 mph